Location: Unspecified
(0.0000°N, 0.0000°E)
Time: 13:45:24
(UTC+00:00)

Vanguard 3 - Pass Details

Date: 09 December 2017
Orbit: 508 x 3264 km, 33.4° (Epoch: 18 January)

Event Time Altitude Azimuth Distance (km) Brightness Sun altitude
Rises 03:44:53 0° 234° (SW) 7,215 11.7 -29.1°
Reaches altitude 10° 03:53:37 10° 214° (SW) 6,160 11.5 -27.1°
Maximum altitude 04:03:27 16° 183° (S) 5,341 11.5 -24.9°
Drops below altitude 10° 04:11:59 10° 151° (SSE) 5,268 12.0 -23.0°
Sets 04:18:16 0° 130° (SE) 5,725 12.8 -21.6°
